Satellite: CO-66
Catalog number: 32791
Epoch time:      11104.69679493
Element set:     952
Inclination:      097.8522 deg
RA of node:       169.6432 deg
Eccentricity:    0.0016723
Arg of perigee:   025.4475 deg
Mean anomaly:     334.7542 deg
Mean motion:   14.82013370 rev/day
Decay rate:      1.637e-05 rev/day^2
Epoch rev:           16010
Checksum:              311

Satellite: RS-30
Catalog number: 32953
Epoch time:      11104.72223495
Element set:     638
Inclination:      082.5036 deg
RA of node:       202.1696 deg
Eccentricity:    0.0019558
Arg of perigee:   161.8554 deg
Mean anomaly:     198.3233 deg
Mean motion:   12.43011841 rev/day
Decay rate:        1.0e-07 rev/day^2
Epoch rev:           13120
Checksum:              264

Satellite: TACSAT-3
Catalog number: 35001
Epoch time:      11104.71038190
Element set:     564
Inclination:      040.4533 deg
RA of node:       197.7086 deg
Eccentricity:    0.0021694
Arg of perigee:   096.1076 deg
Mean anomaly:     264.2213 deg
Mean motion:   15.46925415 rev/day
Decay rate:     2.4461e-04 rev/day^2
Epoch rev:           10724
Checksum:              272

Satellite: PHARMSAT
Catalog number: 35002
Epoch time:      11104.66674037
Element set:     524
Inclination:      040.4685 deg
RA of node:       195.4868 deg
Eccentricity:    0.0023684
Arg of perigee:   102.8310 deg
Mean anomaly:     257.5155 deg
Mean motion:   15.46836471 rev/day
Decay rate:     2.1058e-04 rev/day^2
Epoch rev:           10726
Checksum:              287

Satellite: HAWKSAT1
Catalog number: 35003
Epoch time:      11104.53928163
Element set:     582
Inclination:      040.4555 deg
RA of node:       175.6754 deg
Eccentricity:    0.0021561
Arg of perigee:   126.3909 deg
Mean anomaly:     233.8904 deg
Mean motion:   15.57881305 rev/day
Decay rate:     7.5087e-04 rev/day^2
Epoch rev:           10747
Checksum:              299

Satellite: CP6
Catalog number: 35004
Epoch time:      11104.51829705
Element set:     586
Inclination:      040.4562 deg
RA of node:       170.0708 deg
Eccentricity:    0.0020695
Arg of perigee:   130.6236 deg
Mean anomaly:     229.6397 deg
Mean motion:   15.61571238 rev/day
Decay rate:     9.4308e-04 rev/day^2
Epoch rev:           10752
Checksum:              291

Satellite: METEOR-M
Catalog number: 35865
Epoch time:      11104.74676945
Element set:     279
Inclination:      098.7127 deg
RA of node:       160.6783 deg
Eccentricity:    0.0001790
Arg of perigee:   201.4398 deg
Mean anomaly:     158.6656 deg
Mean motion:   14.21836620 rev/day
Decay rate:       1.76e-06 rev/day^2
Epoch rev:            8157
Checksum:              324

Satellite: RS-38
Catalog number: 35869
Epoch time:      11104.75453358
Element set:     285
Inclination:      098.7102 deg
RA of node:       160.7255 deg
Eccentricity:    0.0004187
Arg of perigee:   206.7004 deg
Mean anomaly:     153.3942 deg
Mean motion:   14.22006403 rev/day
Decay rate:       1.77e-06 rev/day^2
Epoch rev:            8158
Checksum:              292

/EX


_______________________________________________
Via the Keps mailing list courtesy of AMSAT-NA
http://amsat.org/mailman/listinfo/keps

--- ViaMAIL!/WC v1.60d
 * Origin: Chowdanet (401-724-4410) telnet://chowdanet.com  (1:323/120)